period_start,C,m1,H,J0,J1,J2,J3,J4,J5,JA,JB,JC,JD,JJ,JK,JN,#
2014-02-28 00:00:22,0.26,9.51,0.00,18.68,24.57,27.65,6.35,31.29,1027.36,2046.87,1297.83,1622.39,1759.83,350.41,332.81,20.62,0000 0000 0000 0000 000000
2014-02-28 00:01:22,0.48,9.51,0.00,18.69,24.57,27.64,6.18,31.25,1027.36,2046.81,1297.46,1622.14,1759.41,349.72,331.96,20.62,0000 0000 0000 0000 000000
2014-02-28 00:02:22,0.48,9.52,0.00,18.69,24.57,27.61,5.97,31.33,1027.35,2046.83,1297.23,1622.05,1759.16,349.77,331.72,20.63,0000 0000 0000 0000 000000
2014-02-28 00:03:23,0.34,9.52,0.00,18.69,24.57,27.63,5.98,31.33,1027.35,2046.76,1297.08,1622.02,1759.06,348.53,330.87,20.64,0000 0000 0000 0000 000000
2014-02-28 00:04:23,0.09,9.52,0.00,18.69,24.57,27.65,6.41,31.50,1027.35,2046.79,1297.02,1621.98,1758.97,351.06,332.78,20.64,0000 0000 0000 0000 000000
2014-02-28 00:05:23,0.10,9.52,0.00,18.69,24.57,27.65,6.07,31.33,1027.33,2046.82,1297.01,1621.69,1758.63,349.16,331.41,20.65,0000 0000 0000 0000 000000
2014-02-28 00:06:23,0.34,9.52,0.00,18.69,24.57,27.67,6.11,31.25,1027.35,2046.88,1296.87,1621.34,1758.28,350.33,332.54,20.65,0000 0000 0000 0000 000000
2014-02-28 00:07:23,0.51,9.52,0.00,18.69,24.57,27.63,5.92,31.25,1027.33,2046.91,1296.44,1621.15,1758.11,348.88,331.14,20.66,0000 0000 0000 0000 000000
2014-02-28 00:08:24,0.51,9.53,0.00,18.69,24.57,27.61,6.11,31.29,1027.28,2046.93,1296.16,1621.05,1758.04,349.88,331.61,20.67,0000 0000 0000 0000 000000
2014-02-28 00:09:24,0.31,9.53,0.00,18.67,24.57,27.65,6.18,31.42,1027.28,2046.89,1296.06,1621.00,1758.01,350.57,332.61,20.67,0000 0000 0000 0000 000000
2014-02-28 00:10:24,0.09,9.53,0.00,18.68,24.57,27.60,6.17,31.46,1027.19,2046.89,1296.00,1620.94,1757.94,349.47,332.00,20.68,0000 0000 0000 0000 000000
2014-02-28 00:11:24,0.10,9.53,0.00,18.69,24.57,27.59,6.21,31.21,1027.19,2046.90,1295.80,1620.73,1757.50,350.06,331.79,20.68,0000 0000 0000 0000 000000
2014-02-28 00:12:25,0.41,9.53,0.00,18.69,24.57,27.65,6.25,31.29,1027.12,2046.89,1295.37,1620.35,1757.19,350.65,332.76,20.69,0000 0000 0000 0000 000000
2014-02-28 00:13:25,0.59,9.54,0.00,18.69,24.57,27.65,6.20,31.25,1027.09,2046.87,1295.14,1620.13,1757.07,349.50,331.96,20.69,0000 0000 0000 0000 000000
2014-02-28 00:14:25,0.34,9.54,0.00,18.69,24.57,27.65,6.20,31.13,1027.07,2046.86,1295.05,1620.04,1757.00,350.10,332.22,20.70,0000 0000 0000 0000 000000
2014-02-28 00:15:25,0.16,9.54,0.00,18.69,24.57,27.64,6.30,31.29,1027.03,2046.81,1295.01,1620.01,1756.79,350.73,332.81,20.71,0000 0000 0000 0000 000000
2014-02-28 00:16:26,0.05,9.54,0.00,18.70,24.57,27.64,6.24,31.13,1026.98,2046.69,1294.94,1619.92,1756.36,350.03,331.81,20.71,0000 0000 0000 0000 000000
2014-02-28 00:17:26,0.03,9.54,0.00,18.69,24.57,27.66,6.09,31.13,1026.99,2046.72,1294.58,1619.55,1756.15,348.98,331.13,20.72,0000 0000 0000 0000 000000
2014-02-28 00:18:26,0.58,9.54,0.00,18.70,24.57,27.62,6.10,31.25,1027.02,2046.70,1294.22,1619.21,1756.05,349.18,331.32,20.72,0000 0000 0000 0000 000000
2014-02-28 00:19:27,0.48,9.55,0.00,18.70,24.57,27.65,6.29,31.04,1026.98,2046.65,1294.08,1619.07,1756.00,350.05,332.25,20.73,0000 0000 0000 0000 000000
2014-02-28 00:20:27,0.19,9.55,0.00,18.70,24.57,27.63,6.34,31.29,1027.04,2046.64,1293.98,1619.02,1755.77,349.61,331.74,20.74,0000 0000 0000 0000 000000
2014-02-28 00:21:27,0.16,9.55,0.00,18.70,24.57,27.62,6.23,31.17,1027.07,2046.65,1293.65,1618.96,1755.39,349.76,331.99,20.74,0000 0000 0000 0000 000000
2014-02-28 00:22:28,0.35,9.55,0.00,18.71,24.57,27.66,6.30,31.21,1027.09,2046.63,1293.29,1618.80,1755.16,350.07,332.18,20.75,0000 0000 0000 0000 000000
2014-02-28 00:23:28,0.43,9.55,0.00,18.72,24.57,27.64,6.23,31.13,1027.05,2046.67,1293.11,1618.36,1755.06,350.61,332.30,20.75,0000 0000 0000 0000 000000
2014-02-28 00:24:28,0.46,9.56,0.00,18.72,24.57,27.66,6.34,31.29,1027.08,2046.75,1293.04,1618.14,1755.01,350.65,332.35,20.76,0000 0000 0000 0000 000000
2014-02-28 00:25:28,0.29,9.56,0.00,18.72,24.57,27.66,6.18,31.42,1027.08,2046.69,1293.01,1618.05,1754.70,350.75,332.97,20.77,0000 0000 0000 0000 000000
2014-02-28 00:26:29,0.11,9.56,0.00,18.72,24.57,27.65,6.35,31.25,1027.10,2046.59,1292.83,1618.01,1754.31,350.85,332.57,20.77,0000 0000 0000 0000 000000
2014-02-28 00:27:29,0.23,9.56,0.00,18.72,24.57,27.62,6.11,31.13,1027.05,2046.60,1292.37,1617.91,1754.11,349.57,331.69,20.78,0000 0000 0000 0000 000000
2014-02-28 00:28:29,0.45,9.56,0.00,18.72,24.57,27.62,6.23,31.17,1026.98,2046.61,1292.13,1617.48,1754.03,349.83,331.91,20.78,0000 0000 0000 0000 000000
2014-02-28 00:29:29,0.37,9.56,0.00,18.73,24.57,27.65,6.12,31.54,1027.02,2046.49,1292.03,1617.20,1753.92,350.88,332.91,20.79,0000 0000 0000 0000 000000
2014-02-28 00:30:30,0.21,9.57,0.00,18.72,24.57,27.64,6.20,31.33,1027.05,2046.46,1291.81,1617.07,1753.56,348.98,331.11,20.79,0000 0000 0000 0000 000000
2014-02-28 00:31:30,0.33,9.57,0.00,18.72,24.57,27.67,6.11,31.58,1027.05,2046.45,1291.36,1617.02,1753.22,349.78,331.59,20.80,0000 0000 0000 0000 000000
2014-02-28 00:32:30,0.42,9.57,0.00,18.73,24.57,27.63,6.18,31.17,1027.06,2046.40,1291.13,1616.85,1753.08,350.32,332.46,20.81,0000 0000 0000 0000 000000
2014-02-28 00:33:30,0.26,9.57,0.00,18.73,24.57,27.65,6.28,31.17,1026.97,2046.46,1291.03,1616.50,1753.02,349.83,331.79,20.81,0000 0000 0000 0000 000000
2014-02-28 00:34:31,0.37,9.57,0.00,18.72,24.57,27.67,6.28,31.42,1026.97,2046.42,1290.83,1616.20,1752.93,350.53,332.57,20.82,0000 0000 0000 0000 000000
2014-02-28 00:35:31,0.40,9.58,0.00,18.72,24.57,27.67,6.27,31.46,1027.02,2046.52,1290.38,1616.07,1752.59,349.93,331.65,20.82,0000 0000 0000 0000 000000
2014-02-28 00:36:31,0.58,9.58,0.00,18.73,24.57,27.62,6.28,31.00,1027.01,2046.51,1290.14,1616.00,1752.23,350.03,332.09,20.83,0000 0000 0000 0000 000000
2014-02-28 00:37:31,0.25,9.58,0.00,18.74,24.57,27.62,6.27,31.33,1027.00,2046.30,1290.03,1615.90,1752.08,350.36,332.39,20.84,0000 0000 0000 0000 000000
2014-02-28 00:38:32,0.09,9.58,0.00,18.74,24.57,27.61,6.36,31.33,1026.99,2046.54,1289.67,1615.57,1752.03,350.10,332.15,20.84,0000 0000 0000 0000 000000
2014-02-28 00:39:32,0.64,9.58,0.00,18.73,24.57,27.61,6.17,31.33,1026.98,2046.65,1289.29,1615.24,1751.95,349.61,331.59,20.85,0000 0000 0000 0000 000000
2014-02-28 00:40:32,0.64,9.59,0.00,18.74,24.57,27.67,6.15,31.17,1026.93,2046.79,1289.11,1615.08,1751.63,350.61,332.42,20.85,0000 0000 0000 0000 000000
2014-02-28 00:41:32,0.48,9.59,0.00,18.74,24.57,27.67,6.34,31.42,1026.91,2046.74,1289.02,1615.02,1751.27,350.30,332.31,20.86,0000 0000 0000 0000 000000
2014-02-28 00:42:33,0.21,9.59,0.00,18.74,24.57,27.66,6.33,31.38,1026.91,2046.81,1288.96,1614.98,1751.10,349.73,332.25,20.86,0000 0000 0000 0000 000000
2014-02-28 00:43:33,0.20,9.59,0.00,18.74,24.57,27.69,6.23,31.46,1026.92,2046.71,1288.58,1614.72,1751.02,350.05,332.50,20.87,0000 0000 0000 0000 000000
2014-02-28 00:44:33,0.35,9.60,0.00,18.75,24.57,27.66,6.25,31.29,1026.90,2046.67,1288.25,1614.31,1750.87,349.97,331.98,20.88,0000 0000 0000 0000 000000
2014-02-28 00:45:34,0.47,9.60,0.00,18.76,24.57,27.68,6.07,31.29,1026.88,2046.71,1288.12,1614.11,1750.42,349.43,331.45,20.88,0000 0000 0000 0000 000000
2014-02-28 00:46:34,0.34,9.60,0.00,18.76,24.57,27.68,6.24,31.21,1026.89,2046.64,1288.04,1614.04,1750.17,350.19,332.47,20.89,0000 0000 0000 0000 000000
2014-02-28 00:47:34,0.18,9.60,0.00,18.76,24.57,27.65,6.21,31.33,1026.90,2046.69,1287.98,1614.01,1750.06,349.67,331.68,20.89,0000 0000 0000 0000 000000
2014-02-28 00:48:35,0.16,9.60,0.00,18.75,24.57,27.64,6.17,31.08,1026.88,2046.65,1287.67,1613.86,1749.99,350.10,332.39,20.90,0000 0000 0000 0000 000000
2014-02-28 00:49:35,0.27,9.60,0.00,18.76,24.57,27.65,6.22,31.13,1026.88,2046.63,1287.25,1613.51,1749.64,350.18,332.28,20.91,0000 0000 0000 0000 000000
2014-02-28 00:50:35,0.58,9.61,0.00,18.77,24.57,27.63,6.27,31.42,1026.88,2046.70,1287.08,1613.20,1749.27,349.76,331.75,20.91,0000 0000 0000 0000 000000
2014-02-28 00:51:36,0.52,9.61,0.00,18.77,24.57,27.65,6.22,31.33,1026.88,2046.68,1287.02,1613.07,1749.09,350.12,332.41,20.92,0000 0000 0000 0000 000000
2014-02-28 00:52:36,0.16,9.61,0.00,18.77,24.57,27.62,6.31,31.17,1026.89,2046.52,1286.82,1613.01,1749.03,350.50,332.46,20.92,0000 0000 0000 0000 000000
2014-02-28 00:53:36,0.03,9.61,0.00,18.77,24.57,27.62,6.26,31.25,1026.87,2046.55,1286.40,1612.98,1748.98,350.40,332.36,20.93,0000 0000 0000 0000 000000
2014-02-28 00:54:36,0.33,9.61,0.00,18.79,24.57,27.64,6.27,31.21,1026.87,2046.52,1286.15,1612.62,1748.56,350.22,332.16,20.94,0000 0000 0000 0000 000000
2014-02-28 00:55:37,0.49,9.62,0.00,18.79,24.57,27.63,6.36,31.17,1026.87,2046.60,1286.05,1612.24,1748.21,350.15,331.77,20.94,0000 0000 0000 0000 000000
2014-02-28 00:56:37,0.46,9.62,0.00,18.79,24.57,27.62,6.18,31.33,1026.87,2046.40,1285.82,1612.09,1748.07,350.39,332.32,20.95,0000 0000 0000 0000 000000
2014-02-28 00:57:37,0.15,9.62,0.00,18.80,24.57,27.65,6.07,31.33,1026.89,2046.34,1285.40,1612.02,1748.02,349.00,331.13,20.95,0000 0000 0000 0000 000000
2014-02-28 00:58:38,0.23,9.62,0.00,18.81,24.58,27.65,6.29,31.29,1026.89,2046.30,1285.15,1611.95,1747.85,350.55,332.47,20.96,0000 0000 0000 0000 000000
2014-02-28 00:59:38,0.32,9.63,0.00,18.82,24.58,27.65,6.14,31.29,1026.88,2046.37,1285.05,1611.58,1747.41,350.45,332.58,20.96,0000 0000 0000 0000 000000
2014-02-28 01:00:38,0.48,9.63,0.00,18.82,24.58,27.64,6.04,31.33,1026.87,2046.45,1284.95,1611.23,1747.16,349.02,331.07,20.97,0000 0000 0000 0000 000000
2014-02-28 01:01:38,0.48,9.63,0.00,18.82,24.59,27.66,6.11,31.17,1026.87,2046.47,1284.52,1611.08,1747.05,349.46,331.58,20.98,0000 0000 0000 0000 000000
2014-02-28 01:02:39,0.36,9.63,0.00,18.82,24.59,27.67,6.08,31.25,1026.87,2046.42,1284.21,1611.02,1746.98,350.50,332.36,20.98,0000 0000 0000 0000 000000
2014-02-28 01:03:39,0.22,9.63,0.00,18.82,24.59,27.66,6.20,31.04,1026.87,2046.32,1284.06,1610.90,1746.68,350.17,332.07,20.99,0000 0000 0000 0000 000000
2014-02-28 01:04:39,0.23,9.63,0.00,18.84,24.59,27.66,6.31,31.29,1026.87,2046.21,1283.83,1610.45,1746.28,350.29,332.18,20.99,0000 0000 0000 0000 000000
2014-02-28 01:05:40,0.46,9.64,0.00,18.84,24.59,27.62,6.18,31.42,1026.87,2046.21,1283.34,1610.17,1746.10,349.87,331.77,21.00,0000 0000 0000 0000 000000
2014-02-28 01:06:40,0.57,9.64,0.00,18.84,24.60,27.68,6.18,31.29,1026.87,2046.34,1283.12,1610.06,1746.03,350.68,332.64,21.01,0000 0000 0000 0000 000000
2014-02-28 01:07:40,0.33,9.64,0.00,18.83,24.60,27.65,6.13,31.21,1026.87,2046.29,1283.03,1610.01,1745.98,350.04,332.12,21.01,0000 0000 0000 0000 000000
2014-02-28 01:08:40,0.10,9.64,0.00,18.84,24.60,27.65,6.17,31.33,1026.87,2046.36,1282.93,1609.95,1745.79,349.68,331.60,21.02,0000 0000 0000 0000 000000
2014-02-28 01:09:41,0.26,9.64,0.00,18.84,24.60,27.64,6.15,31.38,1026.87,2046.43,1282.52,1609.74,1745.41,349.31,331.42,21.02,0000 0000 0000 0000 000000
2014-02-28 01:10:41,0.64,9.65,0.00,18.84,24.60,27.65,6.24,31.13,1026.87,2046.46,1282.19,1609.37,1745.16,350.80,332.65,21.03,0000 0000 0000 0000 000000
2014-02-28 01:11:41,0.56,9.65,0.00,18.84,24.60,27.63,6.11,31.25,1026.87,2046.39,1282.07,1609.14,1745.05,350.22,332.32,21.03,0000 0000 0000 0000 000000
2014-02-28 01:12:42,0.23,9.65,0.00,18.86,24.60,27.66,6.15,31.08,1026.87,2046.44,1282.01,1609.05,1745.01,349.85,331.41,21.04,0000 0000 0000 0000 000000
2014-02-28 01:13:42,0.18,9.66,0.00,18.85,24.60,27.65,6.22,31.38,1026.87,2046.52,1281.90,1609.01,1744.84,351.04,332.57,21.05,0000 0000 0000 0000 000000
2014-02-28 01:14:42,0.26,9.66,0.00,18.84,24.60,27.66,6.14,31.21,1026.87,2046.58,1281.55,1608.95,1744.42,350.02,331.91,21.05,0000 0000 0000 0000 000000
2014-02-28 01:15:42,0.43,9.66,0.00,18.84,24.60,27.64,6.24,31.25,1026.87,2046.48,1281.23,1608.61,1744.16,349.88,331.63,21.06,0000 0000 0000 0000 000000
2014-02-28 01:16:43,0.41,9.66,0.00,18.85,24.60,27.67,6.17,31.17,1026.87,2046.35,1281.08,1608.26,1744.06,350.36,332.55,21.06,0000 0000 0000 0000 000000
2014-02-28 01:17:43,0.22,9.66,0.00,18.87,24.60,27.64,6.10,31.13,1026.87,2046.26,1281.02,1608.09,1744.01,349.29,331.52,21.07,0000 0000 0000 0000 000000
2014-02-28 01:18:43,0.11,9.66,0.00,18.86,24.60,27.63,6.19,31.38,1026.87,2046.30,1280.96,1608.02,1743.77,349.73,331.73,21.08,0000 0000 0000 0000 000000
2014-02-28 01:19:43,0.20,9.67,0.00,18.85,24.60,27.65,6.16,31.42,1026.87,2046.26,1280.57,1607.94,1743.32,349.46,331.36,21.08,0000 0000 0000 0000 000000
2014-02-28 01:20:44,0.36,9.67,0.00,18.86,24.60,27.64,6.33,31.33,1026.87,2046.21,1280.21,1607.73,1743.11,350.78,332.54,21.09,0000 0000 0000 0000 000000
2014-02-28 01:21:44,0.41,9.67,0.00,18.87,24.60,27.67,6.18,31.33,1026.87,2046.23,1280.07,1607.35,1743.03,349.90,331.52,21.09,0000 0000 0000 0000 000000
2014-02-28 01:22:44,0.35,9.67,0.00,18.87,24.60,27.65,6.15,31.33,1026.87,2046.16,1279.97,1607.12,1742.91,350.32,332.16,21.10,0000 0000 0000 0000 000000
2014-02-28 01:23:45,0.23,9.67,0.00,18.87,24.60,27.67,6.17,31.25,1026.87,2046.13,1279.64,1607.04,1742.56,349.95,331.32,21.11,0000 0000 0000 0000 000000
2014-02-28 01:24:45,0.33,9.67,0.00,18.87,24.60,27.65,6.02,31.25,1026.88,2046.13,1279.27,1606.99,1742.22,348.32,330.57,21.11,0000 0000 0000 0000 000000
2014-02-28 01:25:45,0.37,9.68,0.00,18.87,24.60,27.63,6.28,31.17,1026.90,2046.06,1279.09,1606.78,1742.08,349.91,331.79,21.12,0000 0000 0000 0000 000000
2014-02-28 01:26:45,0.29,9.68,0.00,18.89,24.60,27.65,6.17,31.25,1026.88,2046.06,1279.03,1606.34,1742.02,349.83,331.69,21.12,0000 0000 0000 0000 000000
2014-02-28 01:27:46,0.33,9.68,0.00,18.89,24.60,27.66,6.08,31.21,1026.89,2046.14,1278.96,1606.13,1741.94,349.18,331.46,21.13,0000 0000 0000 0000 000000
2014-02-28 01:28:46,0.31,9.68,0.00,18.89,24.61,27.62,6.08,31.42,1026.87,2046.17,1278.57,1606.05,1741.61,349.57,331.43,21.13,0000 0000 0000 0000 000000
2014-02-28 01:29:46,0.42,9.68,0.00,18.90,24.61,27.62,6.15,31.46,1026.87,2046.14,1278.21,1606.00,1741.25,349.73,331.57,21.14,0000 0000 0000 0000 000000
2014-02-28 01:30:47,0.37,9.69,0.00,18.92,24.62,27.63,6.33,31.54,1026.87,2046.09,1278.08,1605.90,1741.08,350.10,331.91,21.15,0000 0000 0000 0000 000000
2014-02-28 01:31:47,0.20,9.69,0.00,18.92,24.62,27.62,6.19,31.38,1026.88,2046.12,1278.00,1605.54,1741.03,350.02,331.83,21.15,0000 0000 0000 0000 000000
2014-02-28 01:32:47,0.25,9.69,0.00,18.92,24.62,27.64,6.26,31.29,1026.87,2046.07,1277.98,1605.25,1740.95,350.72,332.26,21.16,0000 0000 0000 0000 000000
2014-02-28 01:33:47,0.21,9.69,0.00,18.92,24.62,27.66,6.21,31.21,1026.87,2046.11,1277.93,1605.09,1740.55,349.73,331.26,21.16,0000 0000 0000 0000 000000
2014-02-28 01:34:48,0.34,9.69,0.00,18.92,24.62,27.66,6.15,31.17,1026.87,2046.16,1277.53,1605.03,1740.22,350.11,331.91,21.17,0000 0000 0000 0000 000000
2014-02-28 01:35:48,0.50,9.70,0.00,18.92,24.62,27.64,6.10,31.21,1026.87,2046.23,1277.20,1605.00,1740.08,349.59,331.27,21.18,0000 0000 0000 0000 000000
2014-02-28 01:36:48,0.39,9.70,0.00,18.92,24.62,27.62,6.26,31.25,1026.87,2046.25,1277.07,1604.85,1740.02,350.64,332.52,21.18,0000 0000 0000 0000 000000
2014-02-28 01:37:49,0.18,9.70,0.00,18.92,24.62,27.63,6.21,31.21,1026.87,2046.21,1276.98,1604.46,1739.93,348.91,331.04,21.19,0000 0000 0000 0000 000000
2014-02-28 01:38:49,0.33,9.70,0.00,18.92,24.62,27.65,6.22,31.33,1026.87,2046.18,1276.57,1604.18,1739.52,349.76,331.49,21.19,0000 0000 0000 0000 000000
2014-02-28 01:39:49,0.51,9.71,0.00,18.92,24.62,27.64,6.08,31.04,1026.87,2046.11,1276.21,1604.06,1739.19,349.18,331.03,21.20,0000 0000 0000 0000 000000
2014-02-28 01:40:49,0.33,9.71,0.00,18.92,24.62,27.64,6.26,31.42,1026.87,2046.09,1276.08,1604.01,1739.06,350.24,331.81,21.20,0000 0000 0000 0000 000000
2014-02-28 01:41:50,0.23,9.71,0.00,18.92,24.62,27.64,6.30,31.21,1026.87,2046.16,1276.01,1603.88,1738.99,350.11,331.91,21.21,0000 0000 0000 0000 000000
2014-02-28 01:42:50,0.20,9.71,0.00,18.93,24.62,27.67,6.23,31.25,1026.87,2046.11,1275.85,1603.51,1738.78,349.59,331.61,21.22,0000 0000 0000 0000 000000
2014-02-28 01:43:50,0.43,9.71,0.00,18.94,24.62,27.62,6.25,31.25,1026.87,2046.06,1275.36,1603.21,1738.31,350.82,332.47,21.22,0000 0000 0000 0000 000000
2014-02-28 01:44:51,0.52,9.72,0.00,18.94,24.63,27.62,6.20,31.13,1026.87,2046.04,1275.13,1603.07,1738.11,350.10,331.32,21.23,0000 0000 0000 0000 000000
2014-02-28 01:45:51,0.28,9.72,0.00,18.94,24.63,27.61,6.22,31.21,1026.87,2046.02,1275.04,1603.02,1738.01,349.39,330.94,21.23,0000 0000 0000 0000 000000
2014-02-28 01:46:51,0.14,9.72,0.00,18.93,24.64,27.63,6.30,31.17,1026.88,2046.05,1274.96,1602.93,1737.96,350.27,331.86,21.24,0000 0000 0000 0000 000000
2014-02-28 01:47:51,0.19,9.72,0.00,18.94,24.64,27.65,6.23,31.21,1026.87,2046.02,1274.58,1602.54,1737.63,350.12,331.90,21.25,0000 0000 0000 0000 000000
2014-02-28 01:48:52,0.60,9.72,0.00,18.94,24.64,27.65,6.10,31.13,1026.87,2046.00,1274.21,1602.21,1737.24,349.78,331.89,21.25,0000 0000 0000 0000 000000
2014-02-28 01:49:52,0.53,9.73,0.00,18.94,24.64,27.67,6.07,31.33,1026.87,2046.03,1274.06,1602.07,1737.08,348.50,330.18,21.26,0000 0000 0000 0000 000000
2014-02-28 01:50:52,0.29,9.73,0.00,18.95,24.65,27.66,6.28,31.42,1026.87,2046.05,1273.87,1602.02,1737.00,350.40,332.33,21.26,0000 0000 0000 0000 000000
2014-02-28 01:51:53,0.25,9.73,0.00,18.97,24.65,27.66,6.23,31.33,1026.88,2046.02,1273.41,1601.87,1736.83,350.81,332.52,21.27,0000 0000 0000 0000 000000
2014-02-28 01:52:53,0.43,9.73,0.00,18.97,24.65,27.67,6.05,31.50,1026.88,2046.02,1273.15,1601.45,1736.39,349.40,331.38,21.28,0000 0000 0000 0000 000000
2014-02-28 01:53:53,0.54,9.74,0.00,18.97,24.65,27.64,6.21,31.29,1026.88,2046.02,1273.05,1601.17,1736.14,350.11,331.85,21.28,0000 0000 0000 0000 000000
2014-02-28 01:54:54,0.36,9.74,0.00,18.98,24.65,27.62,6.34,31.38,1026.87,2046.03,1272.89,1601.06,1736.05,350.45,332.17,21.29,0000 0000 0000 0000 000000
2014-02-28 01:55:54,0.27,9.74,0.00,18.99,24.65,27.65,6.24,31.38,1026.87,2046.03,1272.42,1601.01,1736.01,350.02,331.60,21.29,0000 0000 0000 0000 000000
2014-02-28 01:56:54,0.31,9.74,0.00,18.99,24.65,27.67,6.24,31.29,1026.88,2046.02,1272.16,1600.87,1735.80,350.75,332.44,21.30,0000 0000 0000 0000 000000
2014-02-28 01:57:54,0.37,9.74,0.00,18.99,24.65,27.71,6.21,31.42,1026.88,2046.01,1272.05,1600.46,1735.36,350.15,332.02,21.31,0000 0000 0000 0000 000000
2014-02-28 01:58:54,0.45,9.75,0.00,18.99,24.65,27.69,6.27,31.50,1026.91,2046.02,1271.93,1600.18,1735.13,350.66,332.25,21.31,0000 0000 0000 0000 000000
2014-02-28 01:59:55,0.36,9.75,0.00,18.99,24.65,27.69,6.30,31.54,1026.89,2046.01,1271.58,1600.06,1735.05,350.82,332.18,21.32,0000 0000 0000 0000 000000
2014-02-28 02:00:55,0.34,9.75,0.00,18.99,24.65,27.66,6.31,31.54,1026.88,2046.02,1271.25,1600.02,1734.99,350.06,331.78,21.32,0000 0000 0000 0000 000000
2014-02-28 02:01:55,0.27,9.75,0.00,19.01,24.65,27.66,5.97,31.21,1026.88,2046.02,1271.09,1599.99,1734.88,349.54,331.25,21.33,0000 0000 0000 0000 000000
2014-02-28 02:02:55,0.18,9.75,0.00,19.00,24.66,27.61,6.08,31.50,1026.89,2046.01,1271.01,1599.82,1734.49,349.66,331.40,21.33,0000 0000 0000 0000 000000
2014-02-28 02:03:56,0.27,9.75,0.00,18.99,24.66,27.64,6.10,31.33,1026.87,2046.02,1270.90,1599.48,1734.22,349.60,331.34,21.34,0000 0000 0000 0000 000000
2014-02-28 02:04:56,0.42,9.76,0.00,18.99,24.67,27.65,6.28,31.33,1026.88,2046.01,1270.47,1599.20,1734.08,349.44,331.19,21.35,0000 0000 0000 0000 000000
2014-02-28 02:05:56,0.49,9.76,0.00,18.99,24.67,27.66,6.37,31.42,1026.88,2046.02,1270.17,1599.07,1734.02,350.48,332.18,21.35,0000 0000 0000 0000 000000
2014-02-28 02:06:57,0.32,9.76,0.00,18.99,24.67,27.65,6.09,31.63,1026.88,2046.01,1270.06,1599.02,1733.99,349.48,331.24,21.36,0000 0000 0000 0000 000000
2014-02-28 02:07:57,0.13,9.76,0.00,19.00,24.67,27.65,6.25,31.50,1026.88,2046.01,1270.02,1599.00,1733.83,350.29,332.00,21.36,0000 0000 0000 0000 000000
2014-02-28 02:08:57,0.10,9.76,0.00,19.00,24.67,27.65,5.97,31.21,1026.88,2046.00,1269.92,1598.98,1733.40,349.55,331.05,21.37,0000 0000 0000 0000 000000
2014-02-28 02:09:57,0.21,9.76,0.00,19.01,24.67,27.68,6.29,31.33,1026.87,2046.01,1269.59,1598.95,1733.18,350.26,331.20,21.38,0000 0000 0000 0000 000000
2014-02-28 02:10:58,0.36,9.77,0.00,19.02,24.67,27.69,6.05,31.38,1026.87,2046.02,1269.26,1598.67,1733.06,349.66,331.37,21.38,0000 0000 0000 0000 000000
2014-02-28 02:11:58,0.48,9.77,0.00,19.02,24.67,27.69,6.14,31.63,1026.88,2046.02,1269.09,1598.33,1733.02,350.66,332.32,21.39,0000 0000 0000 0000 000000
2014-02-28 02:12:58,0.29,9.77,0.00,19.02,24.67,27.68,6.08,31.63,1026.87,2046.05,1269.03,1598.14,1732.98,349.39,331.19,21.39,0000 0000 0000 0000 000000
2014-02-28 02:13:58,0.20,9.77,0.00,19.04,24.67,27.67,6.13,31.46,1026.87,2046.04,1268.98,1598.05,1732.89,349.86,331.56,21.40,0000 0000 0000 0000 000000
2014-02-28 02:14:59,0.11,9.77,0.00,19.04,24.68,27.70,6.10,31.50,1026.89,2046.03,1268.83,1598.01,1732.47,349.70,331.39,21.40,0000 0000 0000 0000 000000
2014-02-28 02:15:59,0.37,9.77,0.00,19.04,24.68,27.65,6.25,31.63,1026.88,2046.02,1268.34,1597.97,1732.17,349.90,331.57,21.41,0000 0000 0000 0000 000000
2014-02-28 02:16:59,0.37,9.78,0.00,19.04,24.69,27.68,5.99,31.50,1026.87,2046.01,1268.14,1597.83,1732.06,349.86,331.53,21.42,0000 0000 0000 0000 000000
2014-02-28 02:17:59,0.28,9.78,0.00,19.05,24.69,27.71,6.32,31.54,1026.88,2046.00,1268.05,1597.44,1732.01,350.50,332.45,21.42,0000 0000 0000 0000 000000
2014-02-28 02:18:59,0.30,9.78,0.00,19.06,24.70,27.70,6.29,31.58,1026.87,2046.01,1268.02,1597.18,1731.98,350.64,332.25,21.43,0000 0000 0000 0000 000000
2014-02-28 02:20:00,0.19,9.78,0.00,19.07,24.70,27.67,5.97,31.38,1026.87,2046.00,1267.96,1597.06,1731.72,348.78,330.41,21.43,0000 0000 0000 0000 000000
2014-02-28 02:21:00,0.19,9.78,0.00,19.07,24.70,27.64,6.20,31.33,1026.88,2046.00,1267.61,1597.02,1731.33,349.36,331.03,21.44,0000 0000 0000 0000 000000
2014-02-28 02:22:00,0.42,9.79,0.00,19.07,24.70,27.63,6.04,31.29,1026.87,2046.02,1267.26,1597.00,1731.14,348.86,330.55,21.45,0000 0000 0000 0000 000000
2014-02-28 02:23:00,0.31,9.79,0.00,19.08,24.70,27.64,6.13,31.42,1026.87,2046.00,1267.10,1596.90,1731.04,349.82,331.33,21.45,0000 0000 0000 0000 000000
2014-02-28 02:24:01,0.20,9.79,0.00,19.08,24.70,27.66,6.27,31.42,1026.87,2046.00,1267.03,1596.59,1730.99,349.75,331.70,21.46,0000 0000 0000 0000 000000
2014-02-28 02:25:01,0.25,9.79,0.00,19.07,24.70,27.67,6.27,31.50,1026.87,2046.00,1266.98,1596.29,1730.93,350.82,331.98,21.46,0000 0000 0000 0000 000000
2014-02-28 02:26:01,0.26,9.79,0.00,19.08,24.70,27.66,6.08,31.54,1026.87,2046.00,1266.74,1596.11,1730.57,350.17,331.74,21.47,0000 0000 0000 0000 000000
2014-02-28 02:27:01,0.43,9.79,0.00,19.09,24.70,27.68,6.29,31.58,1026.87,2046.00,1266.32,1596.04,1730.22,350.32,331.91,21.47,0000 0000 0000 0000 000000
2014-02-28 02:28:02,0.40,9.80,0.00,19.09,24.71,27.67,6.19,31.50,1026.87,2046.00,1266.13,1596.01,1730.08,349.55,331.19,21.48,0000 0000 0000 0000 000000
2014-02-28 02:29:02,0.21,9.80,0.00,19.09,24.72,27.66,6.33,31.58,1026.87,2046.01,1266.04,1595.96,1730.02,349.68,331.25,21.49,0000 0000 0000 0000 000000
2014-02-28 02:30:02,0.13,9.80,0.00,19.09,24.72,27.68,6.21,31.50,1026.89,2046.00,1265.99,1595.60,1729.94,350.54,332.08,21.49,0000 0000 0000 0000 000000
2014-02-28 02:31:02,0.29,9.80,0.00,19.10,24.72,27.66,6.21,31.67,1026.88,2046.00,1265.76,1595.25,1729.56,350.81,332.11,21.50,0000 0000 0000 0000 000000
2014-02-28 02:32:03,0.52,9.80,0.00,19.11,24.72,27.72,6.32,31.58,1026.88,2046.00,1265.66,1595.09,1729.26,351.02,332.33,21.50,0000 0000 0000 0000 000000
2014-02-28 02:33:03,0.32,9.81,0.00,19.12,24.72,27.69,6.19,31.38,1026.87,2046.00,1265.29,1595.03,1729.10,350.11,331.74,21.51,0000 0000 0000 0000 000000
2014-02-28 02:34:03,0.31,9.81,0.00,19.12,24.72,27.67,6.13,31.42,1026.89,2046.00,1265.10,1595.01,1729.03,350.48,331.61,21.52,0000 0000 0000 0000 000000
2014-02-28 02:35:03,0.16,9.81,0.00,19.12,24.72,27.67,6.01,31.42,1026.88,2046.00,1265.01,1594.90,1728.99,349.72,331.31,21.52,0000 0000 0000 0000 000000
2014-02-28 02:36:03,0.16,9.81,0.00,19.13,24.72,27.69,6.06,31.50,1026.87,2046.00,1264.73,1594.50,1728.77,349.77,331.57,21.53,0000 0000 0000 0000 000000